Find Flock 4g-4

NORAD ID: 62659 Int'l Des: 2025-009 Owner: PLAN Country: US Constellation: planet operational
LEOCIRCULARRETROGRADESSO

リアルタイム位置

3D地球を読み込み中...

Flock 4g-4について

説明を読み込み中...

次回通過

Passes for default location (London). Set your location on the main map for personalized predictions.

高度履歴

Loading altitude history...

軌道要素

1 62659U 25009BC 26105.77193751 .00005786 00000-0 21684-3 0 9998
2 62659 97.3963 187.5046 0003183 156.0160 204.1228 15.27646730126977
Epoch: Apr 15, 2026 • Age: 15 hours

現在のステータス

高度 508.0 km
速度 7.61 km/s
衛星直下点 -65.86°S, 0.56°E
打ち上げ日 Jan 14, 2025
運用期間 1.2 years
タイプ earth observation

技術仕様

分類 Payload
質量 5.70 kg
乾燥質量 5.70 kg
総質量 5.70 kg
長さ 0.30 m
直径 0.10 m
スパン 0.30 m
形状 Box+2 pan
製造者 PLAN
バスタイプ Cubesat 3U
フェーズステータス In Orbit
所有者/国 PLAN/US

Most Searched